This is the latest recevied weather packets stored in our database for station/object AA9VI-10. If no packets are shown the sender has not sent any weather packets the latest 10 day(s).
| Time | Temp. | Humidity | Pressure | Rain* | Wind** | Luminosity | Snow |
|---|---|---|---|---|---|---|---|
| 1777422017 | 16.67° C | 57% | 1011.9 hPa | 0 mm | - | - | - |
| 1777421417 | 16.67° C | 57% | 1011.9 hPa | 0 mm | - | - | - |
| 1777420817 | 16.67° C | 57% | 1012 hPa | 0 mm | - | - | - |
| 1777420217 | 17.22° C | 57% | 1012.3 hPa | 0 mm | - | - | - |
| 1777419617 | 17.22° C | 56% | 1012.4 hPa | 0 mm | - | - | - |
| 1777419017 | 17.78° C | 55% | 1012.2 hPa | 0 mm | - | - | - |
| 1777418417 | 17.78° C | 53% | 1012.3 hPa | 0 mm | - | - | - |
| 1777417817 | 18.33° C | 51% | 1012.4 hPa | 0 mm | - | - | - |
| 1777417217 | 18.33° C | 51% | 1012.2 hPa | 0 mm | - | - | - |
| 1777416617 | 18.33° C | 51% | 1012.2 hPa | 0 mm | - | - | - |
| 1777416017 | 18.89° C | 51% | 1012 hPa | 0 mm | - | - | - |
| 1777415417 | 18.33° C | 55% | 1011.9 hPa | 0 mm | - | - | - |
| 1777414817 | 18.33° C | 53% | 1012 hPa | 0 mm | - | - | - |
| 1777414217 | 18.33° C | 54% | 1012.4 hPa | 0 mm | - | - | - |
| 1777413617 | 17.78° C | 55% | 1012.6 hPa | 0 mm | - | - | - |
| 1777413017 | 17.78° C | 56% | 1012.6 hPa | 0 mm | - | - | - |
| 1777412417 | 17.78° C | 56% | 1012.6 hPa | 0 mm | - | - | - |
| 1777411817 | 17.78° C | 55% | 1012.7 hPa | 0 mm | - | - | - |
| 1777411217 | 17.78° C | 57% | 1012.7 hPa | 0 mm | - | - | - |
| 1777410617 | 17.78° C | 54% | 1012.9 hPa | 0 mm | - | - | - |
| 1777410017 | 17.78° C | 56% | 1013 hPa | 0 mm | - | - | - |
| 1777409417 | 17.78° C | 57% | 1013.1 hPa | 0 mm | - | - | - |
| 1777408817 | 17.22° C | 61% | 1013 hPa | 0 mm | - | - | - |
| 1777408217 | 17.22° C | 60% | 1013.2 hPa | 0 mm | - | - | - |
| 1777407617 | 17.22° C | 60% | 1013.2 hPa | 0 mm | - | - | - |
* Rain latest hour (hover to see other rain measurements)
** Current wind speed in m/s (hover to see current wind gust speed)